Mountain Home, AR

11:23 PM CST on December 15, 2019 (GMT -0600)
Baxter County Regional

Weather History for KBPK - October, 2019

Change the Weather History Date:

Saturday, October 26, 2019

  Actual Average (KFLP) Record (KFLP)
Temperature  
Mean Temperature 50 °F -  
Max Temperature 52 °F 68 °F 86 °F (2014)
Min Temperature 48 °F 48 °F 28 °F (2005)
Degree Days  
Heating Degree Days 15    
Moisture  
Dew Point 49 °F    
Average Humidity 97    
Maximum Humidity 100    
Minimum Humidity 86    
Precipitation  
Precipitation 0.55 in - - ()
Sea Level Pressure  
Sea Level Pressure 29.75 in    
Wind  
Wind Speed 4 mph (North)    
Max Wind Speed 10 mph    
Max Gust Speed 23 mph    
Visibility 9 miles    
Events Rain    
Averages and records for this station are not official NWS values.
T = Trace of Precipitation, MM = Missing Value Source: NWS Daily Summary

Daily Weather History Graph

Daily Weather History Graph

Search for Another Location

Airport or City:

Astronomy

Oct. 26, 2019 Rise Set
Actual Time 7:26 AM CDT 6:20 PM CDT
Civil Twilight 7:00 AM CDT 6:46 PM CDT
Nautical Twilight 6:30 AM CDT 7:16 PM CDT
Astronomical Twilight 6:00 AM CDT 7:46 PM CDT
Moon 5:28 AM CDT (10/26) 5:51 PM CDT (10/26)
Length of Visible Light 11h 45m
Length of Day
10h 53m
Waning Crescent, 3% of the Moon is Illuminated
Oct 26
Waning Crescent
Oct 27
New
Nov 4
First Quarter
Nov 12
Full
Nov 19
Last Quarter

Hourly Weather History & Observations

Time (CDT) Temp. Dew Point Humidity Pressure Visibility Wind Dir Wind Speed Gust Speed Precip Events Conditions
1:53 AM 48.9 °F 45.0 °F 86% 29.95 in 10.0 mi Variable 3.5 mph - N/A   Overcast
2:53 AM 48.9 °F 45.0 °F 86% 29.90 in 10.0 mi ENE 8.1 mph - N/A   Overcast
3:53 AM 50.0 °F 46.0 °F 86% 29.85 in 10.0 mi NE 4.6 mph - N/A   Overcast
4:53 AM 50.0 °F 46.0 °F 86% 29.83 in 10.0 mi Variable 5.8 mph - 0.00 in Rain Light Rain
5:53 AM 48.9 °F 48.0 °F 97% 29.81 in 5.0 mi Variable 4.6 mph - 0.05 in Rain Rain
6:35 AM 48.9 °F 48.0 °F 97% 29.74 in 6.0 mi Variable 6.9 mph - 0.03 in Rain Light Rain
6:48 AM 48.2 °F 48.2 °F 100% 29.73 in 8.0 mi Variable 3.5 mph - 0.03 in Rain Light Rain
6:53 AM 48.9 °F 48.9 °F 100% 29.74 in 10.0 mi Variable 4.6 mph - 0.03 in Rain Light Rain
7:53 AM 48.9 °F 48.9 °F 100% 29.75 in 5.0 mi Variable 4.6 mph - 0.11 in Rain Rain
8:40 AM 48.9 °F 48.9 °F 100% 29.73 in 3.0 mi Variable 5.8 mph - 0.11 in Rain Rain
8:53 AM 48.9 °F 48.9 °F 100% 29.76 in 6.0 mi Variable 4.6 mph - 0.12 in Rain Light Rain
9:08 AM 48.9 °F 48.9 °F 100% 29.75 in 6.0 mi Variable 5.8 mph - 0.02 in Rain Light Rain
9:28 AM 50.0 °F 48.9 °F 96% 29.72 in 5.0 mi ENE 10.4 mph 16.1 mph 0.05 in Rain Rain
9:53 AM 50.0 °F 48.9 °F 96% 29.67 in 8.0 mi Variable 5.8 mph 23.0 mph 0.07 in Rain Light Rain
10:12 AM 50.0 °F 48.9 °F 96% 29.71 in 10.0 mi Variable 3.5 mph - 0.00 in Rain Light Rain
10:53 AM 51.1 °F 50.0 °F 96% 29.70 in 10.0 mi Calm Calm - 0.01 in Rain Light Rain
12:13 PM 51.1 °F 50.0 °F 96% 29.65 in 10.0 mi NNW 4.6 mph - N/A   Overcast
12:33 PM 50.0 °F 50.0 °F 100% 29.65 in 10.0 mi NW 4.6 mph - N/A   Overcast
12:53 PM 50.0 °F 50.0 °F 100% 29.65 in 10.0 mi Calm Calm - N/A   Overcast
1:48 PM 51.8 °F 51.8 °F 100% 29.65 in 9.0 mi Variable 4.6 mph - 0.00 in Rain Light Rain
1:53 PM 51.1 °F 51.1 °F 100% 29.65 in 10.0 mi Variable 4.6 mph - 0.00 in Rain Light Rain
2:11 PM 52.0 °F 52.0 °F 100% 29.65 in 5.0 mi NNW 8.1 mph - 0.04 in Rain Light Rain
2:53 PM 51.1 °F 51.1 °F 100% 29.66 in 10.0 mi Variable 6.9 mph - 0.05 in   Overcast
3:53 PM 50.0 °F 50.0 °F 100% 29.67 in 3.0 mi Variable 3.5 mph - 0.07 in Rain Rain
4:53 PM 50.0 °F 48.9 °F 96% 29.69 in 10.0 mi Variable 5.8 mph - 0.04 in   Overcast
5:53 PM 50.0 °F 50.0 °F 100% 29.71 in 10.0 mi Variable 3.5 mph - N/A   Overcast
6:18 PM 50.0 °F 50.0 °F 100% 29.73 in 10.0 mi Variable 3.5 mph - N/A   Overcast
6:53 PM 50.0 °F 50.0 °F 100% 29.73 in 10.0 mi Variable 3.5 mph - N/A   Overcast
7:53 PM 51.1 °F 50.0 °F 96% 29.76 in 10.0 mi Variable 3.5 mph - N/A   Overcast
8:22 PM 51.1 °F 50.0 °F 96% 29.76 in 10.0 mi Variable 4.6 mph - N/A   Overcast
8:29 PM 51.1 °F 50.0 °F 96% 29.76 in 10.0 mi Calm Calm - N/A   Overcast
8:53 PM 51.1 °F 50.0 °F 96% 29.78 in 10.0 mi Variable 3.5 mph - N/A   Overcast
9:46 PM 51.1 °F 50.0 °F 96% 29.80 in 10.0 mi Calm Calm - N/A   Overcast
9:53 PM 51.1 °F 50.0 °F 96% 29.81 in 10.0 mi Variable 3.5 mph - N/A   Overcast
10:53 PM 51.1 °F 48.9 °F 92% 29.83 in 10.0 mi Calm Calm - N/A   Overcast
11:13 PM 50.0 °F 48.9 °F 96% 29.84 in 10.0 mi Calm Calm - N/A   Scattered Clouds
11:53 PM 48.0 °F 48.0 °F 100% 29.85 in 8.0 mi Calm Calm - N/A   Clear